• In Moldova, Republic
  • List of Countries
  • For 7 days
  • Water Temperature
  • Satellite Maps
  • Weather Map
  • Weather Widgets
  • user-avatar
    Login

    Hourly Weather Hobart

    Today, 16 January, Monday

    Time Temperature Precipitation Wind Pressure Humidity
    00:00 +12°C° 0 mm 4 mps 745 mmHg 85%
    01:00 +12°C° 0 mm 5 mps 745 mmHg 85%
    02:00 +11°C° 0 mm 4 mps 745 mmHg 86%
    03:00 +11°C° 0 mm 4 mps 744 mmHg 88%
    04:00 +11°C° 0 mm 4 mps 744 mmHg 90%
    05:00 +12°C° 0 mm 4 mps 744 mmHg 85%
    06:00 +13°C° 0 mm 4 mps 745 mmHg 80%
    07:00 +14°C° 0 mm 4 mps 745 mmHg 75%
    08:00 +15°C° 0 mm 4 mps 745 mmHg 69%
    09:00 +18°C° 0 mm 4 mps 745 mmHg 63%
    10:00 +20°C° 0 mm 3 mps 745 mmHg 53%
    11:00 +21°C° 0 mm 3 mps 744 mmHg 49%
    12:00 +23°C° 0 mm 4 mps 744 mmHg 45%
    13:00 +25°C° 0 mm 4 mps 744 mmHg 41%
    14:00 +25°C° 0 mm 4 mps 743 mmHg 41%
    15:00 +25°C° 0 mm 4 mps 743 mmHg 41%
    16:00 +25°C° 0 mm 4 mps 743 mmHg 41%
    17:00 +24°C° 0 mm 3 mps 742 mmHg 48%
    18:00 +21°C° 0 mm 3 mps 742 mmHg 56%
    19:00 +20°C° 0 mm 2 mps 742 mmHg 63%
    20:00 +17°C° 0 mm 2 mps 742 mmHg 71%
    21:00 +15°C° 0 mm 2 mps 742 mmHg 78%
    22:00 +13°C° 0 mm 2 mps 742 mmHg 86%
    23:00 +12°C° 0 mm 2 mps 742 mmHg 86%

    Tomorrow, 17 January, Tuesday

    Time Temperature Precipitation Wind Pressure Humidity
    00:00 +12°C° 0 mm 2 mps 741 mmHg 87%
    01:00 +10°C° 0 mm 2 mps 741 mmHg 87%
    02:00 +10°C° 0 mm 2 mps 741 mmHg 86%
    03:00 +10°C° 0 mm 2 mps 741 mmHg 85%
    04:00 +9°C° 0 mm 2 mps 740 mmHg 83%
    05:00 +12°C° 0 mm 2 mps 741 mmHg 77%
    06:00 +14°C° 0 mm 2 mps 741 mmHg 70%
    07:00 +16°C° 0 mm 2 mps 741 mmHg 64%
    08:00 +18°C° 0 mm 2 mps 741 mmHg 55%
    09:00 +21°C° 0 mm 3 mps 740 mmHg 47%
    10:00 +24°C° 0 mm 3 mps 740 mmHg 39%
    11:00 +25°C° 0 mm 3 mps 740 mmHg 38%
    12:00 +26°C° 0 mm 4 mps 739 mmHg 38%
    13:00 +27°C° 0 mm 4 mps 739 mmHg 37%
    14:00 +25°C° 0.1 mm 4 mps 739 mmHg 45%
    15:00 +24°C° 0.1 mm 3 mps 739 mmHg 52%
    16:00 +21°C° 0.1 mm 3 mps 738 mmHg 60%
    17:00 +20°C° 0.2 mm 2 mps 738 mmHg 68%
    18:00 +19°C° 0.2 mm 2 mps 738 mmHg 76%
    19:00 +17°C° 0.2 mm 2 mps 739 mmHg 84%
    20:00 +17°C° 0.1 mm 2 mps 738 mmHg 85%
    21:00 +16°C° 0.1 mm 2 mps 738 mmHg 86%
    22:00 +16°C° 0.1 mm 3 mps 738 mmHg 88%
    23:00 +14°C° 0 mm 4 mps 738 mmHg 87%

    Day after tomorrow, 18 January, Wednesday

    Time Temperature Precipitation Wind Pressure Humidity
    00:00 +13°C° 0 mm 5 mps 738 mmHg 87%
    01:00 +11°C° 0 mm 6 mps 737 mmHg 86%
    02:00 +10°C° 0 mm 7 mps 738 mmHg 85%
    03:00 +10°C° 0 mm 8 mps 738 mmHg 84%
    04:00 +10°C° 0 mm 9 mps 738 mmHg 83%
    05:00 +10°C° 0 mm 9 mps 738 mmHg 78%
    06:00 +9°C° 0 mm 10 mps 739 mmHg 72%
    07:00 +11°C° 0 mm 11 mps 739 mmHg 67%
    08:00 +11°C° 0.1 mm 11 mps 740 mmHg 63%
    09:00 +12°C° 0.1 mm 11 mps 741 mmHg 58%
    10:00 +13°C° 0.1 mm 11 mps 741 mmHg 54%
    11:00 +14°C° 0 mm 11 mps 742 mmHg 49%
    12:00 +16°C° 0 mm 10 mps 742 mmHg 45%
    13:00 +17°C° 0 mm 10 mps 743 mmHg 40%
    14:00 +17°C° 0 mm 10 mps 743 mmHg 42%
    15:00 +17°C° 0 mm 9 mps 744 mmHg 44%
    16:00 +16°C° 0 mm 9 mps 744 mmHg 45%
    17:00 +15°C° 0 mm 8 mps 745 mmHg 51%
    18:00 +13°C° 0 mm 8 mps 746 mmHg 56%
    19:00 +12°C° 0 mm 7 mps 746 mmHg 61%
    20:00 +10°C° 0 mm 6 mps 747 mmHg 69%
    21:00 +8°C° 0 mm 6 mps 748 mmHg 77%
    22:00 +7°C° 0 mm 5 mps 748 mmHg 85%
    23:00 +6°C° 0 mm 5 mps 748 mmHg 88%

    19 January, Thursday

    Time Temperature Precipitation Wind Pressure Humidity
    00:00 +6°C° 0 mm 5 mps 748 mmHg 91%
    01:00 +5°C° 0 mm 4 mps 748 mmHg 94%
    02:00 +5°C° 0 mm 4 mps 748 mmHg 95%
    03:00 +4°C° 0 mm 4 mps 748 mmHg 95%
    04:00 +4°C° 0 mm 4 mps 748 mmHg 96%
    05:00 +6°C° 0 mm 4 mps 749 mmHg 88%
    06:00 +8°C° 0 mm 3 mps 749 mmHg 81%
    07:00 +10°C° 0 mm 3 mps 749 mmHg 73%
    08:00 +12°C° 0 mm 3 mps 749 mmHg 63%
    09:00 +14°C° 0 mm 3 mps 749 mmHg 54%
    10:00 +18°C° 0 mm 3 mps 749 mmHg 44%
    11:00 +18°C° 0 mm 3 mps 749 mmHg 42%
    12:00 +19°C° 0 mm 3 mps 748 mmHg 39%
    13:00 +20°C° 0 mm 3 mps 748 mmHg 36%
    14:00 +20°C° 0 mm 3 mps 747 mmHg 39%
    15:00 +19°C° 0 mm 4 mps 747 mmHg 41%
    16:00 +19°C° 0 mm 4 mps 746 mmHg 44%
    17:00 +17°C° 0 mm 4 mps 746 mmHg 52%
    18:00 +14°C° 0 mm 4 mps 746 mmHg 60%
    19:00 +12°C° 0 mm 4 mps 745 mmHg 68%
    20:00 +12°C° 0 mm 4 mps 745 mmHg 72%
    21:00 +11°C° 0 mm 4 mps 745 mmHg 75%
    22:00 +11°C° 0 mm 4 mps 745 mmHg 78%
    23:00 +10°C° 0.2 mm 4 mps 744 mmHg 84%

    20 January, Friday

    Time Temperature Precipitation Wind Pressure Humidity
    00:00 +10°C° 0.2 mm 4 mps 744 mmHg 89%
    01:00 +8°C° 0.2 mm 4 mps 743 mmHg 94%
    02:00 +9°C° 0.1 mm 3 mps 742 mmHg 95%
    03:00 +9°C° 0.1 mm 3 mps 741 mmHg 95%
    04:00 +9°C° 0.1 mm 3 mps 741 mmHg 95%
    05:00 +10°C° 0.1 mm 3 mps 740 mmHg 94%
    06:00 +11°C° 0.1 mm 3 mps 740 mmHg 94%
    07:00 +11°C° 0.1 mm 3 mps 739 mmHg 93%
    08:00 +12°C° 0.7 mm 3 mps 739 mmHg 93%
    09:00 +13°C° 0.7 mm 2 mps 738 mmHg 94%
    10:00 +13°C° 0.7 mm 2 mps 738 mmHg 94%
    11:00 +14°C° 2 mm 2 mps 738 mmHg 94%
    12:00 +14°C° 2 mm 2 mps 737 mmHg 93%
    13:00 +14°C° 2 mm 1 mps 737 mmHg 92%
    14:00 +15°C° 0.5 mm 1 mps 737 mmHg 91%
    15:00 +15°C° 0.5 mm 1 mps 738 mmHg 90%
    16:00 +15°C° 0.5 mm 1 mps 738 mmHg 90%
    17:00 +15°C° 0.1 mm 1 mps 739 mmHg 91%
    18:00 +15°C° 0.1 mm 1 mps 739 mmHg 92%
    19:00 +14°C° 0.1 mm 1 mps 740 mmHg 93%
    20:00 +14°C° 0.1 mm 2 mps 740 mmHg 94%
    21:00 +13°C° 0.1 mm 2 mps 741 mmHg 96%
    22:00 +11°C° 0.1 mm 3 mps 741 mmHg 97%
    23:00 +11°C° 0 mm 3 mps 741 mmHg 97%

    21 January, Saturday

    Time Temperature Precipitation Wind Pressure Humidity
    00:00 +10°C° 0 mm 3 mps 742 mmHg 96%
    01:00 +10°C° 0 mm 3 mps 742 mmHg 96%
    02:00 +9°C° 0 mm 3 mps 742 mmHg 96%
    03:00 +9°C° 0 mm 3 mps 742 mmHg 96%
    04:00 +8°C° 0 mm 3 mps 742 mmHg 96%
    05:00 +9°C° 0 mm 3 mps 743 mmHg 93%
    06:00 +10°C° 0 mm 3 mps 743 mmHg 90%
    07:00 +11°C° 0 mm 3 mps 744 mmHg 87%
    08:00 +13°C° 0 mm 4 mps 744 mmHg 78%
    09:00 +15°C° 0 mm 4 mps 744 mmHg 69%
    10:00 +18°C° 0 mm 4 mps 744 mmHg 59%
    11:00 +19°C° 0 mm 4 mps 744 mmHg 56%
    12:00 +20°C° 0 mm 4 mps 744 mmHg 53%
    13:00 +21°C° 0 mm 4 mps 744 mmHg 50%
    14:00 +22°C° 0 mm 4 mps 744 mmHg 49%
    15:00 +22°C° 0 mm 4 mps 744 mmHg 49%
    16:00 +22°C° 0 mm 4 mps 744 mmHg 48%
    17:00 +21°C° 0 mm 3 mps 744 mmHg 56%
    18:00 +19°C° 0 mm 3 mps 745 mmHg 64%
    19:00 +18°C° 0 mm 3 mps 745 mmHg 72%
    20:00 +16°C° 0 mm 3 mps 745 mmHg 79%
    21:00 +14°C° 0 mm 2 mps 745 mmHg 86%
    22:00 +12°C° 0 mm 2 mps 745 mmHg 93%
    23:00 +12°C° 0 mm 2 mps 745 mmHg 94%
    Show more